Hourly Weather Manaus

Today, 8 August, Saturday

Time Temperature Precipitation Wind Pressure Humidity
00:00 +25°C° 0 mm 0 mps 756 mmHg 61%
01:00 +25°C° 0 mm 0 mps 756 mmHg 62%
02:00 +24°C° 0 mm 0 mps 755 mmHg 63%
03:00 +24°C° 0 mm 0 mps 755 mmHg 65%
04:00 +23°C° 0 mm 0 mps 756 mmHg 66%
05:00 +23°C° 0 mm 0 mps 756 mmHg 68%
06:00 +25°C° 0 mm 0 mps 756 mmHg 64%
07:00 +28°C° 0 mm 1 mps 756 mmHg 60%
08:00 +30°C° 0 mm 1 mps 757 mmHg 55%
09:00 +32°C° 0 mm 1 mps 757 mmHg 48%
10:00 +34°C° 0 mm 1 mps 757 mmHg 41%
11:00 +37°C° 0 mm 2 mps 757 mmHg 34%
12:00 +38°C° 0 mm 2 mps 756 mmHg 33%
13:00 +39°C° 0 mm 2 mps 755 mmHg 31%
14:00 +39°C° 0 mm 2 mps 754 mmHg 29%
15:00 +38°C° 0 mm 2 mps 753 mmHg 32%
16:00 +37°C° 0 mm 1 mps 753 mmHg 35%
17:00 +36°C° 0 mm 1 mps 753 mmHg 38%
18:00 +34°C° 0 mm 1 mps 753 mmHg 42%
19:00 +32°C° 0 mm 1 mps 754 mmHg 47%
20:00 +30°C° 0 mm 1 mps 754 mmHg 52%
21:00 +29°C° 0 mm 1 mps 755 mmHg 54%
22:00 +28°C° 0 mm 1 mps 755 mmHg 57%
23:00 +28°C° 0 mm 1 mps 756 mmHg 59%

Tomorrow, 9 August, Sunday

Time Temperature Precipitation Wind Pressure Humidity
00:00 +27°C° 0 mm 1 mps 755 mmHg 61%
01:00 +27°C° 0 mm 1 mps 755 mmHg 63%
02:00 +25°C° 0 mm 0 mps 754 mmHg 65%
03:00 +24°C° 0 mm 0 mps 755 mmHg 66%
04:00 +24°C° 0 mm 0 mps 755 mmHg 67%
05:00 +24°C° 0 mm 0 mps 755 mmHg 67%
06:00 +25°C° 0 mm 0 mps 755 mmHg 63%
07:00 +27°C° 0 mm 0 mps 756 mmHg 59%
08:00 +29°C° 0 mm 0 mps 756 mmHg 55%
09:00 +31°C° 0 mm 0 mps 756 mmHg 49%
10:00 +35°C° 0 mm 1 mps 756 mmHg 42%
11:00 +39°C° 0 mm 1 mps 756 mmHg 36%
12:00 +39°C° 0 mm 1 mps 755 mmHg 34%
13:00 +39°C° 0 mm 1 mps 754 mmHg 32%
14:00 +39°C° 0 mm 1 mps 753 mmHg 31%
15:00 +39°C° 0 mm 1 mps 753 mmHg 33%
16:00 +37°C° 0 mm 1 mps 752 mmHg 35%
17:00 +36°C° 0 mm 1 mps 752 mmHg 37%
18:00 +34°C° 0 mm 1 mps 752 mmHg 42%
19:00 +32°C° 0 mm 1 mps 753 mmHg 46%
20:00 +30°C° 0 mm 1 mps 753 mmHg 50%
21:00 +30°C° 0 mm 1 mps 753 mmHg 52%
22:00 +29°C° 0 mm 1 mps 754 mmHg 54%
23:00 +28°C° 0 mm 1 mps 754 mmHg 56%

Day after tomorrow, 10 August, Monday

Time Temperature Precipitation Wind Pressure Humidity
00:00 +28°C° 0 mm 1 mps 754 mmHg 58%
01:00 +27°C° 0 mm 1 mps 753 mmHg 61%
02:00 +27°C° 0 mm 1 mps 753 mmHg 64%
03:00 +26°C° 0 mm 1 mps 753 mmHg 65%
04:00 +26°C° 0 mm 1 mps 753 mmHg 66%
05:00 +26°C° 0 mm 1 mps 753 mmHg 67%
06:00 +27°C° 0 mm 1 mps 753 mmHg 63%
07:00 +29°C° 0 mm 1 mps 754 mmHg 60%
08:00 +30°C° 0 mm 1 mps 754 mmHg 57%
09:00 +33°C° 0 mm 1 mps 755 mmHg 49%
10:00 +36°C° 0 mm 1 mps 755 mmHg 42%
11:00 +39°C° 0 mm 1 mps 755 mmHg 35%
12:00 +40°C° 0 mm 1 mps 754 mmHg 33%
13:00 +40°C° 0 mm 1 mps 752 mmHg 31%
14:00 +40°C° 0 mm 2 mps 751 mmHg 30%
15:00 +39°C° 0 mm 1 mps 751 mmHg 34%
16:00 +36°C° 0 mm 1 mps 751 mmHg 38%
17:00 +35°C° 0 mm 1 mps 751 mmHg 43%
18:00 +33°C° 0 mm 1 mps 751 mmHg 47%
19:00 +32°C° 0 mm 1 mps 751 mmHg 51%
20:00 +30°C° 0 mm 1 mps 751 mmHg 55%
21:00 +30°C° 0 mm 1 mps 752 mmHg 56%
22:00 +29°C° 0 mm 1 mps 752 mmHg 57%
23:00 +29°C° 0 mm 1 mps 753 mmHg 58%

11 August, Tuesday

Time Temperature Precipitation Wind Pressure Humidity
00:00 +28°C° 0 mm 1 mps 752 mmHg 59%
01:00 +28°C° 0 mm 1 mps 752 mmHg 61%
02:00 +28°C° 0 mm 1 mps 751 mmHg 62%
03:00 +27°C° 0 mm 1 mps 751 mmHg 64%
04:00 +27°C° 0 mm 1 mps 751 mmHg 66%
05:00 +26°C° 0 mm 1 mps 751 mmHg 68%
06:00 +27°C° 0 mm 1 mps 752 mmHg 66%
07:00 +28°C° 0 mm 1 mps 753 mmHg 64%
08:00 +29°C° 0 mm 1 mps 754 mmHg 62%
09:00 +32°C° 0 mm 1 mps 754 mmHg 55%
10:00 +35°C° 0 mm 1 mps 754 mmHg 47%
11:00 +37°C° 0 mm 1 mps 754 mmHg 40%
12:00 +39°C° 0 mm 1 mps 753 mmHg 38%
13:00 +39°C° 0 mm 1 mps 752 mmHg 37%
14:00 +39°C° 0 mm 1 mps 751 mmHg 35%
15:00 +39°C° 0 mm 1 mps 750 mmHg 37%
16:00 +37°C° 0 mm 1 mps 750 mmHg 39%
17:00 +36°C° 0 mm 1 mps 750 mmHg 41%
18:00 +34°C° 0 mm 1 mps 750 mmHg 45%
19:00 +33°C° 0 mm 1 mps 751 mmHg 49%
20:00 +29°C° 0 mm 0 mps 751 mmHg 52%
21:00 +31°C° 0 mm 1 mps 751 mmHg 55%
22:00 +30°C° 0 mm 1 mps 752 mmHg 57%
23:00 +29°C° 0 mm 1 mps 752 mmHg 60%

12 August, Wednesday

Time Temperature Precipitation Wind Pressure Humidity
00:00 +29°C° 0 mm 1 mps 752 mmHg 63%
01:00 +28°C° 0 mm 1 mps 751 mmHg 65%
02:00 +28°C° 0 mm 1 mps 751 mmHg 68%
03:00 +28°C° 0 mm 1 mps 751 mmHg 70%
04:00 +27°C° 0 mm 1 mps 751 mmHg 72%
05:00 +27°C° 0 mm 1 mps 751 mmHg 75%
06:00 +28°C° 0 mm 1 mps 752 mmHg 72%
07:00 +29°C° 0 mm 1 mps 752 mmHg 70%
08:00 +30°C° 0 mm 1 mps 753 mmHg 67%
09:00 +32°C° 0 mm 1 mps 753 mmHg 59%
10:00 +34°C° 0 mm 1 mps 753 mmHg 50%
11:00 +38°C° 0 mm 2 mps 753 mmHg 41%
12:00 +37°C° 0 mm 1 mps 752 mmHg 40%
13:00 +37°C° 0 mm 1 mps 751 mmHg 39%
14:00 +39°C° 0 mm 1 mps 750 mmHg 38%
15:00 +37°C° 0 mm 1 mps 750 mmHg 41%
16:00 +36°C° 0 mm 1 mps 749 mmHg 45%
17:00 +33°C° 0 mm 0 mps 749 mmHg 48%
18:00 +33°C° 0 mm 1 mps 749 mmHg 52%
19:00 +32°C° 0 mm 1 mps 750 mmHg 57%
20:00 +31°C° 0 mm 1 mps 750 mmHg 61%
21:00 +30°C° 0 mm 1 mps 751 mmHg 63%
22:00 +28°C° 0 mm 0 mps 751 mmHg 65%
23:00 +27°C° 0 mm 0 mps 751 mmHg 67%

13 August, Thursday

Time Temperature Precipitation Wind Pressure Humidity
00:00 +27°C° 0 mm 0 mps 751 mmHg 67%
01:00 +29°C° 0 mm 1 mps 751 mmHg 68%
02:00 +28°C° 0 mm 1 mps 750 mmHg 69%
03:00 +28°C° 0 mm 1 mps 750 mmHg 72%
04:00 +27°C° 0 mm 1 mps 750 mmHg 76%
05:00 +27°C° 0 mm 1 mps 751 mmHg 79%
06:00 +28°C° 0 mm 1 mps 751 mmHg 75%
07:00 +29°C° 0 mm 1 mps 752 mmHg 71%
08:00 +30°C° 0 mm 1 mps 753 mmHg 67%
09:00 +32°C° 0 mm 1 mps 753 mmHg 58%
10:00 +36°C° 0 mm 2 mps 753 mmHg 50%
11:00 +38°C° 0 mm 2 mps 753 mmHg 41%
12:00 +38°C° 0 mm 2 mps 752 mmHg 40%
13:00 +39°C° 0 mm 2 mps 751 mmHg 38%
14:00 +40°C° 0 mm 1 mps 750 mmHg 36%
15:00 +39°C° 0 mm 1 mps 749 mmHg 39%
16:00 +37°C° 0 mm 1 mps 749 mmHg 43%
17:00 +34°C° 0 mm 0 mps 748 mmHg 46%
18:00 +33°C° 0 mm 0 mps 749 mmHg 49%
19:00 +31°C° 0 mm 0 mps 749 mmHg 52%
20:00 +30°C° 0 mm 0 mps 750 mmHg 55%
21:00 +29°C° 0 mm 0 mps 750 mmHg 57%
22:00 +31°C° 0 mm 1 mps 750 mmHg 60%
23:00 +30°C° 0 mm 1 mps 750 mmHg 63%
Show more